Location: *
(33.8649°S, 62.1526°E)
Time: 04:51:20
(UTC+00:00)

CENTAUR R/B - Pass Details

Date: 17 January 2021
Orbit: 742 x 1446 km, 63.5° (Epoch: 25 February)

Event Time Altitude Azimuth Distance (km) Brightness Sun altitude
Rises 15:47:04 0° 317° (NW) 4,459 6.1 -8.6°
Reaches altitude 10° 15:50:12 10° 313° (NW) 3,432 5.5 -9.1°
Maximum altitude 15:58:24 55° 236° (WSW) 1,475 3.9 -10.5°
Drops below altitude 10° 16:05:31 10° 159° (SSE) 2,988 5.2 -11.8°
Sets 16:08:05 0° 154° (SSE) 3,849 5.7 -12.2°
